GFSNW_con_3kmhel_231.txt.gz
Helicity
150 134 135 140 148 151 146 239 177 128 246 299 201 207 346 230 149 135 118 147 74 173 93 148 158 179 158 239 184 191 217 237 204 172 143 121 135 65 81 110 139 262 231 210
135 145 129 148 158 177 298 284 262 167 260 220 237 183 149 202 182 123 167 186 143 165 210 195 194 160 176 262 254 237 210 191 183 165 178 178 203 130 86 74 140 33 178 299
128 138 135 143 160 141 253 280 278 221 251 213 187 225 170 154 173 61 162 191 252 208 190 129 251 198 179 172 239 357 323 237 220 205 210 190 158 123 94 87 143 118 157 165
120 136 138 137 159 140 274 348 345 371 408 210 192 211 211 125 146 104 135 68 209 224 154 228 286 199 209 271 257 264 237 202 247 225 203 201 146 138 160 203 191 201 164 174
119 134 139 144 164 159 295 442 481 340 285 217 208 232 213 182 115 215 116 93 162 214 247 237 316 178 140 81 150 184 266 210 240 185 162 110 126 121 188 182 136 132 137 152
90 104 153 146 158 241 424 298 365 352 285 317 254 194 103 179 179 150 102 124 140 221 245 223 166 167 158 147 114 187 237 220 184 105 177 132 80 143 124 133 119 104 106 97
94 94 125 145 149 173 366 331 440 368 269 264 196 174 123 124 160 138 166 64 97 243 200 259 306 249 161 181 171 243 237 279 194 199 136 98 183 239 258 203 145 200 185 251
109 116 127 137 128 133 257 246 311 312 240 248 136 112 118 152 118 122 81 229 321 317 391 352 372 319 193 168 294 224 305 310 262 272 237 293 171 218 275 282 270 271 228 208
117 128 136 139 125 128 223 254 229 261 258 194 226 164 109 169 205 196 338 396 467 525 497 396 311 298 234 178 225 318 328 285 312 389 275 215 247 337 337 299 262 252 175 181
123 135 135 144 129 132 229 248 170 144 229 189 241 193 149 111 202 359 454 484 457 406 444 363 332 299 281 301 302 247 291 288 337 391 406 327 356 354 333 240 135 145 146 150
121 133 138 147 139 134 220 248 138 183 95 172 209 168 135 102 102 250 390 520 622 496 462 447 464 357 355 311 323 319 246 208 332 395 402 319 346 299 235 132 115 107 111 89
123 138 154 155 146 148 223 286 265 226 143 189 6 -16 77 85 243 213 453 428 437 441 557 598 510 437 446 385 255 342 323 415 345 381 353 363 282 198 100 102 85 75 111 99
135 151 161 154 158 161 214 350 281 267 154 50 50 200 157 173 170 286 398 619 473 460 514 484 405 357 349 344 319 334 413 409 444 412 301 267 137 153 183 157 151 161 155 141
143 147 140 148 149 152 232 343 272 291 173 174 160 68 104 202 188 291 357 385 601 521 472 382 413 357 294 310 326 335 309 305 277 263 200 137 127 209 170 141 130 138 138 134
144 145 161 179 168 139 246 310 238 217 238 26 -6 94 143 231 149 173 350 472 564 441 431 383 382 379 359 403 388 281 261 212 255 182 176 149 164 135 118 89 115 166 196 219
154 178 172 157 128 159 313 265 207 248 235 159 99 265 251 348 346 447 439 451 450 634 477 317 315 338 348 216 194 201 327 324 200 221 207 200 147 116 243 294 317 361 388 364
153 143 101 69 67 204 255 248 150 182 274 153 -24 55 211 231 265 336 539 538 577 461 457 421 368 405 279 253 272 262 229 241 257 231 175 217 310 279 285 253 240 244 252 275
68 34 17 63 143 195 152 124 127 384 292 151 11 -30 101 177 196 298 341 441 399 395 365 305 323 296 262 257 251 189 191 207 258 296 304 285 248 243 220 199 200 205 229 223
48 53 91 257 231 172 207 114 228 371 272 119 58 -44 6 200 324 301 339 381 383 226 275 275 182 192 165 175 238 304 188 202 244 251 220 191 192 201 200 162 181 196 202 198
161 313 192 136 216 142 373 302 218 222 209 179 101 233 244 366 402 420 422 280 286 228 196 203 199 185 210 300 323 338 294 248 180 167 143 155 148 115 139 190 166 132 128 128
364 224 208 212 367 410 259 97 112 156 121 100 166 257 335 446 487 520 346 247 215 176 179 188 145 173 232 244 319 274 224 181 159 160 122 98 130 166 156 127 122 86 111 80
176 207 468 401 273 189 120 204 203 152 84 120 379 408 453 405 485 326 209 239 176 130 128 177 138 186 198 326 249 194 154 151 138 119 127 171 163 118 83 104 86 77 90 60
248 281 222 221 136 109 40 98 193 110 217 296 449 553 537 522 373 253 215 186 152 92 120 135 125 276 381 284 205 157 111 95 65 148 173 108 98 78 64 78 84 105 75 42
191 177 153 144 55 71 115 79 124 222 207 328 469 584 465 465 367 211 235 147 110 116 124 114 209 284 256 202 153 158 137 124 169 189 125 100 69 71 88 91 79 77 48 31
205 153 120 93 93 151 142 268 303 255 303 447 597 639 513 531 335 222 153 87 91 77 86 92 221 253 227 213 172 140 137 169 161 126 93 51 65 113 117 85 77 57 48 68
143 127 106 130 205 231 216 258 354 293 427 491 492 371 264 262 137 128 85 88 50 53 111 213 281 260 200 193 174 162 153 128 133 124 121 119 126 122 89 75 73 66 80 92
149 81 149 147 213 208 218 238 277 296 385 327 298 226 195 136 81 103 94 47 73 173 191 195 206 171 167 165 177 138 105 120 124 117 125 132 116 89 82 81 78 71 93 114

GFSNW_con_3kmhel_234.txt.gz
Helicity
117 144 138 129 135 111 117 171 209 107 233 258 216 205 337 231 224 16 120 165 229 160 181 193 115 102 177 177 125 186 205 207 175 109 142 129 157 185 277 203 95 164 239 164
122 128 139 144 155 144 220 241 205 119 268 300 259 259 219 221 196 181 128 140 72 73 121 108 100 105 170 222 139 167 171 143 187 187 155 152 154 219 273 173 160 242 251 307
117 129 150 154 162 122 192 281 314 238 170 202 178 252 200 189 130 62 135 133 90 79 65 123 169 132 153 185 274 242 204 157 157 150 119 136 189 258 221 176 244 226 280 286
122 134 138 150 157 114 192 335 342 350 307 228 250 239 202 149 195 145 128 93 61 81 122 97 124 127 191 236 160 122 138 166 159 161 158 192 187 218 161 249 206 265 307 172
88 104 101 115 149 106 255 394 457 448 313 262 199 209 155 152 102 185 168 88 118 95 155 178 85 65 141 244 80 145 187 106 147 139 125 134 152 136 202 186 183 180 129 147
99 70 107 71 127 176 365 292 350 386 306 261 231 144 183 191 179 78 95 89 90 59 67 140 119 111 137 236 196 163 235 182 175 100 93 144 116 180 134 161 161 203 204 132
114 98 97 92 94 165 360 331 388 438 387 325 212 187 159 176 149 118 188 61 73 104 72 131 247 263 230 173 299 247 297 316 239 167 173 90 244 184 140 168 311 321 274 292
93 104 105 103 92 125 327 245 331 411 382 280 264 271 230 175 131 130 123 87 82 87 236 185 145 248 180 188 250 292 335 358 295 220 141 219 159 189 191 219 258 345 317 288
111 97 97 118 111 103 261 326 247 320 267 203 221 197 189 166 148 117 149 210 220 260 185 242 180 179 166 139 220 372 466 409 351 316 196 133 142 142 289 332 295 308 237 184
111 120 105 96 132 100 245 334 246 266 210 198 213 162 143 158 177 127 176 232 247 267 275 201 200 179 224 181 244 257 374 404 370 317 320 288 271 336 402 309 229 243 131 91
120 114 110 90 123 126 250 270 282 239 212 219 253 238 221 251 217 178 149 256 301 284 256 195 278 274 350 353 301 353 425 387 438 402 358 255 389 390 348 286 172 107 121 103
123 101 100 105 120 113 222 305 307 235 165 148 109 95 110 157 142 147 151 206 181 301 215 232 220 300 318 331 330 477 451 519 367 314 258 355 569 563 221 132 142 154 143 132
112 99 110 114 125 110 202 374 382 316 203 129 31 5 12 93 118 131 138 121 95 172 285 316 271 377 302 352 469 495 376 391 341 322 326 412 382 204 222 204 192 188 239 304
112 106 97 113 123 102 242 381 360 352 258 127 67 -3 -32 59 98 53 91 179 199 299 369 458 503 309 276 304 310 249 249 291 289 336 394 311 245 205 226 354 359 330 310 289
96 73 91 124 115 122 363 413 314 310 304 58 5 95 109 95 70 85 81 126 143 233 335 407 368 452 317 317 316 278 316 329 358 268 200 213 350 398 320 308 260 235 229 242
61 97 115 119 118 208 406 356 234 262 248 146 38 134 165 156 117 206 279 247 227 294 306 366 354 405 308 270 231 231 152 172 228 191 326 420 350 341 282 260 237 220 226 225
102 93 98 121 168 310 356 324 215 288 293 250 96 34 135 241 121 148 231 313 266 269 308 357 430 452 403 364 311 316 340 417 368 374 376 422 341 247 227 181 172 184 194 217
106 106 118 152 214 261 334 336 115 377 330 225 131 111 188 160 227 183 225 216 228 256 312 390 430 360 429 368 319 346 480 471 395 361 314 255 208 194 159 156 174 229 251 221
95 111 156 236 325 310 276 177 185 377 291 251 139 122 199 153 188 191 196 192 179 149 220 276 262 345 305 214 187 365 298 241 244 254 215 190 188 170 171 191 220 184 143 125
155 341 328 362 462 221 291 269 260 228 188 252 206 256 226 232 191 180 108 88 50 36 103 236 274 283 345 264 383 354 273 208 174 217 178 169 163 159 169 160 91 88 93 89
484 434 417 317 159 261 242 169 161 214 261 208 215 258 335 386 166 77 70 -65 -35 47 156 284 188 236 315 338 458 336 264 226 213 186 149 124 142 146 91 84 105 94 91 75
188 228 394 426 190 211 132 177 230 230 145 239 368 352 352 275 309 166 96 59 76 109 195 227 160 204 360 374 340 263 201 187 171 133 132 145 103 66 101 107 97 54 75 63
289 308 332 228 203 157 53 8 40 -14 28 146 297 367 327 325 226 211 147 68 82 304 149 51 147 316 389 378 286 208 151 149 137 153 128 62 104 120 90 43 47 80 80 66
214 197 136 135 24 -14 -52 -41 -77 -31 -46 79 359 486 331 287 256 122 80 170 290 63 111 202 201 307 328 264 213 186 149 137 146 88 64 118 105 73 37 60 82 92 83 74
202 150 4 -19 1 4 17 5 101 177 161 314 382 441 367 439 277 194 203 180 61 50 163 121 229 284 286 242 171 158 156 137 95 75 125 96 72 53 81 85 98 113 114 125
197 64 -8 58 -29 -56 47 80 135 192 359 548 406 277 214 197 237 164 135 206 101 91 136 166 225 262 226 198 158 159 135 114 104 137 116 80 41 60 119 129 131 118 116 116
41 24 15 51 -6 -0 95 130 167 290 384 312 196 201 158 215 199 213 254 183 92 129 156 179 201 217 185 173 181 163 160 157 164 129 77 51 67 116 140 154 123 117 112 101

GFSNW_con_3kmhel_237.txt.gz
Helicity
85 93 129 139 128 142 163 223 283 150 192 254 274 256 428 251 203 133 166 141 154 149 137 138 158 122 116 140 111 96 159 122 140 114 173 226 156 105 150 191 128 190 239 226
82 92 114 162 163 173 247 274 250 126 208 309 268 280 220 285 190 186 95 139 112 108 118 142 138 97 64 112 125 120 143 125 153 193 226 195 62 90 141 212 212 233 219 226
83 91 103 159 175 147 241 262 301 220 194 255 235 268 217 259 264 207 173 183 164 136 128 123 151 156 151 108 112 165 130 131 155 152 129 137 131 140 167 220 287 196 222 161
86 90 92 138 189 138 263 304 289 285 298 232 173 170 237 237 280 265 185 127 134 123 149 89 77 65 55 119 128 152 183 138 20 69 118 155 197 225 216 238 206 230 180 144
88 93 76 125 179 140 289 367 378 305 340 227 238 217 210 182 129 155 104 127 105 115 100 62 32 69 68 57 87 121 110 110 129 126 59 84 155 220 207 242 183 216 173 154
94 80 86 111 117 197 385 284 338 323 248 282 231 193 244 196 178 137 86 102 100 69 41 93 87 113 133 119 91 63 68 104 99 85 85 141 124 270 236 226 211 205 164 202
98 85 79 70 105 159 390 345 398 394 331 243 192 149 154 177 156 101 61 42 124 64 73 55 98 127 119 113 146 192 209 202 126 200 184 119 226 228 208 160 193 246 339 398
101 101 92 88 109 124 335 284 392 414 349 264 209 192 102 117 125 101 60 100 87 109 120 93 60 122 136 128 236 209 271 263 215 166 125 155 231 248 329 304 252 318 327 312
115 123 96 80 106 95 267 329 265 355 306 259 251 233 224 180 146 149 195 212 132 110 109 81 91 131 135 125 185 178 234 235 204 250 219 163 248 302 331 325 234 289 271 289
101 112 102 93 107 104 212 323 256 254 276 266 280 204 227 213 200 191 221 187 193 170 141 123 145 183 198 240 220 170 177 199 183 210 264 318 332 358 381 265 144 310 250 165
101 100 109 117 96 113 179 267 303 252 285 299 258 278 266 240 228 202 141 173 197 179 164 179 220 181 233 280 290 196 163 173 285 323 338 284 397 409 302 324 404 262 229 212
101 113 120 120 121 116 154 282 325 320 272 216 242 185 263 253 242 197 194 186 112 118 145 190 167 227 219 240 209 241 251 361 318 338 337 419 474 451 468 380 300 301 284 268
104 105 120 121 116 115 150 278 342 366 314 285 216 219 110 143 189 175 204 160 138 138 134 115 134 195 168 262 242 271 346 476 394 403 239 364 341 340 413 466 371 346 333 304
91 101 114 129 130 117 140 312 298 305 309 279 209 201 197 80 88 154 197 223 71 89 30 46 77 112 100 208 248 295 494 352 317 314 304 365 415 464 407 391 297 286 269 246
89 97 113 133 127 125 174 306 327 323 380 129 176 176 121 99 6 60 119 131 97 104 85 85 125 161 231 276 380 377 427 318 304 205 244 358 408 394 293 285 258 220 193 196
90 96 117 118 117 147 312 349 290 337 373 226 73 181 127 113 -25 -45 55 109 84 79 65 100 135 225 170 122 215 196 216 235 202 274 392 404 352 272 229 230 206 194 199 200
91 105 112 117 146 292 340 294 248 374 377 265 196 108 142 148 91 -11 59 137 82 90 100 131 185 185 220 245 217 187 267 323 429 492 466 375 204 215 201 189 185 196 204 194
89 104 116 149 205 297 339 308 91 365 388 275 214 104 84 92 114 127 159 55 70 77 93 135 181 173 249 165 184 404 503 552 537 399 254 248 294 256 206 176 169 187 193 180
140 133 129 262 413 391 374 229 201 433 340 272 182 98 29 107 146 129 147 192 119 121 100 151 141 149 96 97 251 396 416 389 362 330 274 248 236 213 179 167 173 202 193 200
132 160 225 302 316 242 377 369 312 313 303 287 175 202 142 103 176 183 161 123 128 80 118 178 142 109 117 221 274 389 475 345 362 398 268 220 186 167 159 184 179 183 212 173
290 280 186 242 305 462 352 376 303 299 218 182 195 209 195 199 187 187 158 124 130 125 80 84 -24 7 123 262 530 533 336 220 177 174 152 119 145 168 202 179 176 206 115 48
173 311 367 536 268 259 205 201 390 258 203 148 273 277 270 215 225 201 149 153 124 24 57 -8 -98 7 198 320 484 468 310 244 242 199 193 177 184 179 152 191 176 64 46 73
335 529 348 347 284 223 228 290 413 269 154 252 321 366 302 272 236 209 167 49 -12 89 -38 -98 48 141 157 272 537 428 292 264 244 208 177 180 160 152 190 136 57 67 101 85
314 419 274 247 346 209 285 232 254 214 104 214 296 407 336 307 268 179 43 50 77 -33 -32 57 114 108 206 402 489 396 268 216 188 157 155 142 165 170 103 86 113 106 97 94
222 205 220 169 244 191 251 279 339 333 214 238 318 355 290 323 188 128 87 24 -33 -77 -22 4 57 179 401 454 374 279 218 180 163 140 134 175 148 105 117 127 111 103 110 106
236 209 194 269 272 299 293 274 304 339 325 383 369 192 126 74 101 14 -32 -89 -125 -46 38 117 234 313 345 350 231 168 147 143 145 132 167 127 98 126 153 122 110 100 102 104
226 151 119 87 75 18 81 154 209 272 352 202 132 65 22 54 -5 -10 3 -20 50 118 167 178 274 309 282 239 189 149 152 154 163 186 109 83 124 171 151 117 94 97 112 104

GFSNW_con_3kmhel_243.txt.gz
Helicity
81 81 83 92 115 101 133 178 222 131 167 231 272 241 195 212 178 243 262 221 199 184 180 150 130 122 122 145 109 107 109 110 130 109 76 65 94 98 94 60 120 182 202 192
80 84 87 97 114 138 187 175 205 153 177 340 239 293 239 312 284 201 195 208 185 171 125 123 94 94 104 109 105 100 100 142 136 97 48 53 34 30 59 111 131 138 151 194
86 91 90 99 109 123 204 193 205 219 166 257 219 213 266 223 143 236 229 221 174 148 100 104 109 131 133 117 77 88 76 128 116 103 64 68 71 93 132 118 153 111 185 163
76 85 97 103 98 118 224 258 227 236 218 196 201 208 231 193 240 240 243 230 187 124 93 115 110 117 91 91 107 103 87 66 67 37 38 81 106 92 99 169 186 186 132 101
60 67 87 107 96 124 236 253 257 239 254 209 146 191 185 165 137 230 232 198 140 187 143 114 109 133 100 102 101 63 82 94 77 74 59 79 83 98 132 146 134 159 146 112
68 72 77 91 90 192 278 265 240 213 248 201 160 172 202 217 187 200 167 152 191 130 76 30 -7 45 79 87 91 101 82 107 91 100 80 65 60 91 14 65 68 73 102 91
63 63 77 100 94 117 279 256 291 271 258 223 174 102 108 124 188 198 154 153 122 86 46 76 78 88 67 71 49 69 131 154 130 140 112 125 110 144 109 102 101 111 103 146
67 63 73 90 94 101 240 227 275 258 213 217 192 202 128 108 78 121 144 94 66 31 101 103 102 82 88 110 138 98 142 174 159 162 134 115 103 87 119 109 116 160 178 206
73 70 76 93 98 98 163 262 219 248 215 160 223 165 167 192 187 168 173 177 155 135 102 93 115 119 118 112 101 109 113 129 135 180 143 142 139 169 122 140 136 140 160 218
83 84 84 93 104 104 144 229 241 235 208 207 160 194 132 153 196 179 184 171 145 131 153 155 153 154 144 129 121 110 137 152 125 124 180 136 117 147 134 52 81 187 211 251
96 104 95 99 108 111 144 213 252 279 259 181 179 193 195 202 182 166 154 205 186 181 158 159 172 148 126 137 150 122 114 119 161 161 179 133 132 154 161 177 251 279 312 340
104 109 108 108 121 119 127 183 202 285 251 179 276 217 195 157 162 172 159 143 109 144 189 179 181 180 196 160 154 149 154 158 156 152 163 144 155 202 218 322 342 312 352 276
113 111 106 109 122 123 127 206 212 278 305 291 235 213 196 157 143 144 159 167 168 169 160 150 153 161 169 173 155 157 162 121 173 161 133 113 138 220 212 300 405 359 288 201
122 114 102 106 123 110 117 210 221 243 318 275 189 300 219 203 180 150 153 161 201 197 186 166 171 160 126 191 195 201 194 121 118 150 114 138 128 175 260 355 362 299 244 224
115 109 112 100 105 115 139 220 208 268 240 169 235 243 244 192 189 205 182 147 174 191 159 136 148 114 97 99 134 174 198 197 205 170 105 136 154 218 330 338 265 244 250 193
105 82 96 112 105 106 195 192 194 249 264 194 160 237 289 303 237 223 211 160 143 157 111 92 91 129 84 100 82 106 65 89 70 138 177 229 289 306 291 251 240 239 183 168
111 84 91 109 123 167 220 234 185 300 347 220 249 248 263 222 200 219 208 162 176 144 119 105 109 141 173 184 168 208 198 103 162 238 318 342 326 292 259 253 268 225 201 182
112 102 96 90 88 131 203 182 46 288 359 156 194 258 270 237 273 225 147 159 205 183 182 221 166 135 169 162 182 90 53 132 201 219 258 270 378 326 249 267 225 214 185 179
118 106 85 131 155 180 212 185 33 328 335 256 237 279 313 252 224 170 150 164 155 178 186 215 171 199 202 181 148 91 148 155 160 307 337 382 350 277 240 209 200 192 176 182
129 152 184 182 229 152 307 229 244 287 409 353 341 348 330 273 301 254 201 148 130 95 125 177 224 152 167 164 192 146 218 346 498 486 362 373 296 255 211 175 165 160 184 185
240 197 246 252 266 376 355 256 303 393 294 404 365 374 454 354 294 245 154 127 97 91 72 147 104 69 127 137 126 182 387 422 301 233 287 270 310 281 228 190 182 189 190 150
205 246 330 494 307 248 223 287 293 387 393 308 380 469 443 322 318 205 162 127 100 104 107 135 90 23 27 90 98 208 344 312 269 251 279 284 300 223 213 197 191 188 163 156
406 326 426 390 322 208 205 331 214 410 378 358 475 524 412 387 300 239 158 101 116 149 150 165 88 48 -0 -43 49 181 286 369 353 325 323 313 218 207 216 197 196 183 165 143
248 310 273 287 342 215 325 279 358 405 369 351 447 561 416 340 291 190 154 155 143 93 97 30 49 3 -23 176 283 357 346 360 360 324 305 270 208 194 167 187 186 184 157 159
270 287 287 300 346 355 221 386 407 350 247 318 344 413 311 365 260 259 234 127 41 -42 -8 33 37 2 132 247 314 335 358 366 347 318 279 248 225 201 197 189 179 141 178 156
242 214 195 254 395 308 287 322 416 363 277 350 443 339 295 283 252 191 159 58 -3 31 9 10 -17 28 144 272 296 280 320 357 337 277 239 211 199 181 183 174 131 159 150 159
331 251 216 169 220 147 194 225 318 257 427 398 381 255 171 242 183 177 194 197 160 103 31 28 -11 44 144 191 276 352 358 343 289 256 204 173 172 198 186 143 137 137 137 120

GFSNW_con_3kmhel_249.txt.gz
Helicity
117 127 116 85 98 107 193 244 289 142 176 331 318 161 108 77 207 222 45 134 218 172 127 213 77 113 184 99 102 54 104 81 43 86 130 123 102 105 94 107 94 79 112 81
129 124 117 110 95 35 169 266 296 150 134 297 276 160 128 110 102 64 91 154 123 146 218 154 109 120 111 100 119 137 90 77 59 85 68 60 68 66 64 82 123 71 89 57
117 120 113 106 72 -11 182 261 348 300 214 180 132 159 135 136 128 126 141 185 148 176 257 150 105 91 72 113 109 116 106 74 69 74 75 62 117 90 56 56 117 59 62 31
118 113 100 86 60 40 156 289 265 199 268 216 185 127 157 134 149 164 105 61 51 48 73 82 61 57 39 17 103 96 125 98 78 82 105 81 56 35 33 40 75 75 53 27
115 121 99 77 51 62 202 302 306 291 231 126 152 160 126 99 137 179 175 104 65 98 85 48 72 62 52 95 100 105 95 103 89 47 36 32 39 19 32 28 28 34 36 39
117 124 116 82 71 113 219 181 156 220 233 115 130 140 141 98 94 117 113 93 127 114 53 118 118 168 220 229 163 122 109 89 62 36 54 102 49 37 32 29 30 53 55 27
109 115 122 104 84 68 108 153 194 265 241 158 94 75 67 118 98 136 119 101 103 103 153 186 153 169 117 71 73 64 81 69 94 86 70 114 51 68 71 81 53 44 52 118
102 120 122 99 86 63 92 110 147 196 195 161 140 108 89 72 89 73 115 129 171 136 145 135 118 108 126 63 20 29 59 109 148 119 74 61 36 47 55 97 49 95 83 70
117 126 119 108 93 91 107 138 95 246 195 150 133 103 81 103 104 103 83 118 142 178 157 132 151 137 108 134 145 158 185 129 150 115 129 130 131 140 160 90 77 222 155 37
115 124 115 111 100 98 110 119 151 126 191 209 149 148 105 49 63 90 73 78 102 98 118 141 153 165 168 165 111 101 147 155 135 96 163 146 56 212 121 150 190 117 58 43
112 116 120 124 108 101 118 81 108 134 149 191 174 222 258 130 74 94 103 108 117 93 146 165 190 161 142 102 77 127 106 128 153 148 186 117 92 169 131 164 113 59 47 54
115 124 122 136 118 97 98 122 86 108 181 159 155 199 209 195 202 176 100 111 66 105 128 142 124 141 156 108 107 38 121 103 123 120 98 140 133 208 201 121 93 75 87 124
122 138 135 123 97 82 88 88 110 155 161 97 101 82 69 68 104 137 123 111 128 118 141 109 116 144 121 129 116 81 87 81 137 111 69 71 93 82 51 70 100 114 125 146
123 139 141 120 92 83 96 124 117 166 156 142 94 67 81 38 74 110 121 112 99 114 110 107 99 131 116 113 148 144 154 121 93 68 40 74 28 27 118 214 167 122 125 152
117 127 133 118 100 83 106 118 114 131 156 91 95 81 63 57 50 114 89 89 81 92 102 126 118 104 133 126 178 207 139 121 125 127 49 90 80 77 174 171 120 104 118 131
108 117 120 113 107 90 154 132 87 101 108 66 115 104 121 81 80 92 88 93 99 122 128 104 90 80 97 115 121 87 27 60 32 70 57 66 127 217 194 118 108 91 114 179
112 116 116 109 105 157 204 181 106 134 204 158 64 54 77 131 134 117 138 134 128 128 78 109 122 100 62 106 86 117 107 77 48 51 83 183 211 161 111 112 123 95 161 238
117 116 118 99 81 145 137 213 87 189 294 188 161 153 121 135 145 116 73 54 66 63 104 111 124 115 125 78 91 46 46 50 81 91 91 83 66 101 124 145 147 143 214 246
110 102 83 122 159 174 91 153 81 134 222 198 217 160 143 124 209 188 139 120 100 108 136 130 113 131 209 135 57 57 42 138 102 38 39 32 129 135 123 125 132 177 202 245
83 128 178 224 149 133 173 219 152 169 229 196 173 145 164 143 251 274 173 130 165 147 107 109 147 128 88 71 71 46 84 44 28 32 43 78 186 216 115 13 124 149 198 241
221 216 189 207 191 233 223 201 174 191 286 210 125 151 266 249 247 261 161 178 181 201 131 139 101 81 48 15 86 85 50 9 7 29 41 113 122 81 43 80 178 187 224 233
276 271 306 305 257 211 219 226 196 137 204 175 137 207 195 186 226 200 213 205 181 183 184 163 124 50 -38 -44 -12 37 32 35 30 48 58 129 76 87 112 182 195 213 238 225
386 259 366 338 344 193 217 236 281 293 248 188 133 269 376 297 244 244 185 205 231 150 178 195 105 53 34 37 56 37 31 27 46 39 46 129 198 177 210 213 224 233 251 180
299 328 341 292 307 280 235 165 247 213 233 77 249 449 355 223 210 201 213 217 180 220 179 105 108 93 55 40 30 59 51 21 42 87 134 182 229 251 235 231 234 265 236 206
286 342 198 201 179 313 190 163 263 252 148 143 198 277 302 252 248 252 200 221 246 183 107 91 112 50 23 34 44 51 52 68 49 65 127 255 286 311 310 290 259 259 257 202
157 119 229 170 186 240 271 157 200 245 231 199 245 221 200 247 234 167 206 160 124 118 138 111 53 68 52 40 37 4 44 61 86 126 172 215 262 229 244 263 223 185 184 198
127 159 235 213 123 280 295 234 226 185 232 272 308 264 209 153 214 179 179 184 124 112 93 96 95 79 75 78 14 16 -6 34 99 149 139 183 223 248 272 224 155 144 151 192

GFSNW_con_3kmhel_252.txt.gz
Helicity
144 149 127 123 92 170 247 302 240 196 179 149 166 121 44 23 39 19 111 115 105 153 176 230 102 246 197 157 79 113 80 117 98 70 94 106 119 86 112 146 103 95 86 66
156 163 138 116 79 49 225 268 269 173 158 230 174 112 97 90 64 78 151 124 173 253 344 169 251 157 74 31 86 117 141 87 128 94 76 107 95 99 100 73 109 86 93 96
168 150 134 96 24 -55 248 270 362 258 227 217 173 113 104 127 142 102 35 64 94 174 116 148 123 96 49 77 94 74 77 67 86 112 78 3 23 97 85 95 116 95 77 32
153 144 121 83 6 -8 205 457 323 215 231 272 280 187 161 171 121 83 70 24 48 18 137 75 200 204 53 33 30 42 71 96 66 72 115 124 90 89 55 45 35 69 70 47
169 160 125 53 -9 63 171 438 407 192 269 163 170 249 117 88 101 135 111 70 39 18 6 82 49 148 153 12 83 43 111 98 97 72 79 46 28 20 19 15 11 23 35 23
166 149 132 79 56 121 178 228 287 322 236 207 176 179 154 101 85 119 53 64 86 119 40 64 94 80 99 146 132 96 143 91 98 85 69 79 69 47 27 18 14 40 57 104
158 141 107 67 53 66 156 194 301 380 351 210 124 108 92 107 81 87 87 79 73 136 136 114 104 80 81 115 124 125 130 101 113 86 77 87 38 28 82 106 68 80 120 239
168 148 110 77 52 7 148 185 191 309 317 205 159 62 126 113 115 106 176 106 117 113 137 184 183 121 95 62 72 74 89 106 183 163 94 64 21 14 28 62 44 129 183 230
137 126 103 77 59 25 55 109 201 245 274 274 123 86 33 110 152 147 135 115 88 112 124 176 140 142 96 84 113 201 296 210 186 170 163 130 65 130 117 118 116 219 278 209
122 123 103 83 76 73 86 75 108 104 207 236 295 216 161 75 66 137 100 172 134 107 145 170 152 106 100 148 141 153 218 237 235 175 174 154 20 111 143 117 177 195 160 108
114 121 103 100 85 100 130 93 83 138 128 249 314 242 212 205 169 119 104 106 128 104 158 172 179 171 170 163 156 185 164 140 197 206 220 170 21 59 149 187 190 147 80 89
109 112 118 109 115 112 118 126 72 88 99 124 133 218 177 139 199 197 136 138 93 114 148 138 132 179 157 107 136 71 203 148 127 126 137 42 105 172 164 175 158 109 88 151
104 90 98 93 112 118 137 117 98 128 82 59 96 95 152 130 120 120 171 125 154 130 123 116 136 137 97 140 122 115 77 59 155 129 110 55 144 95 88 90 95 98 107 126
102 85 88 93 92 121 121 128 106 124 108 139 129 37 76 24 103 134 113 135 209 144 139 128 137 139 149 153 142 138 96 136 171 170 84 105 156 94 103 203 247 215 151 143
100 88 83 96 94 116 166 173 102 117 139 111 105 90 87 56 23 32 83 109 103 105 80 76 80 88 131 119 144 180 126 134 154 100 46 83 98 58 108 142 194 191 96 134
100 102 81 63 77 117 212 171 93 94 92 73 96 83 144 94 74 69 71 65 93 65 67 93 114 141 144 141 159 97 114 132 116 32 37 56 85 167 133 122 203 233 130 113
111 99 91 80 71 149 224 187 165 118 150 92 68 36 21 177 47 133 127 119 129 142 110 76 81 73 41 99 120 155 158 176 81 49 69 78 60 149 132 140 177 302 130 89
71 73 92 85 78 127 132 218 156 140 281 88 98 83 45 112 170 140 84 116 75 78 55 44 29 75 93 61 69 60 59 99 73 66 110 93 71 82 102 221 352 202 142 194
76 85 68 113 151 185 132 131 119 191 190 108 97 142 96 63 116 144 121 101 115 77 75 76 102 120 172 139 89 70 73 48 66 80 73 81 83 61 133 306 259 145 176 211
89 172 228 193 158 129 162 176 152 93 152 138 94 102 129 121 191 166 122 97 120 107 62 63 116 119 108 109 122 132 49 83 57 34 37 59 81 88 127 379 290 163 203 207
222 273 256 223 161 230 226 175 164 143 134 143 102 126 154 157 165 183 150 143 141 150 132 163 115 102 67 51 83 97 100 70 39 31 21 50 88 82 315 413 285 203 245 280
242 223 321 268 199 196 148 167 209 133 107 89 76 139 238 221 172 168 160 188 178 195 146 203 201 132 92 -29 18 57 90 97 101 95 89 83 94 178 390 390 288 294 307 329
242 247 204 226 259 174 233 146 230 208 110 86 173 213 283 219 151 129 109 174 218 188 227 269 230 231 27 40 45 54 67 37 62 70 63 80 114 267 311 318 365 334 389 371
231 239 99 115 130 274 227 128 243 142 187 101 117 283 239 172 166 138 157 147 169 247 237 199 188 85 54 58 63 68 64 72 98 85 89 99 192 359 359 421 476 428 424 404
314 215 237 126 88 28 201 157 129 203 165 237 208 193 202 201 193 194 176 142 224 201 153 124 94 105 51 34 35 74 65 64 79 75 178 311 413 539 582 564 483 494 475 382
285 227 200 81 157 135 105 197 149 183 220 159 321 311 258 264 240 210 242 264 222 64 97 107 69 67 49 48 107 108 77 52 27 142 211 323 412 456 469 448 483 423 367 309
233 307 177 199 125 165 144 136 178 156 232 341 346 191 192 212 187 174 185 146 84 90 72 77 86 80 46 134 143 116 95 53 74 216 234 287 334 332 373 399 299 283 266 248

GFSNW_con_3kmhel_258.txt.gz
Helicity
181 210 199 227 218 215 355 326 247 139 245 215 196 170 206 65 46 31 31 54 59 63 114 102 143 193 154 162 86 119 104 98 133 181 169 121 130 141 146 164 150 180 161 80
185 196 201 186 216 271 390 358 308 183 230 185 221 195 166 88 65 125 82 123 72 100 81 113 139 209 199 186 145 166 143 141 162 195 165 162 157 133 157 169 224 228 180 91
191 183 190 221 194 182 316 323 268 251 225 224 154 196 166 113 75 97 95 79 83 83 101 133 194 205 193 195 232 195 189 183 170 104 144 101 114 139 187 235 199 159 176 142
191 177 205 179 107 150 309 391 284 271 235 225 230 176 158 140 147 59 58 56 59 90 82 95 154 190 178 202 257 243 253 189 197 173 142 133 163 102 72 124 160 171 96 153
246 220 198 119 100 195 289 389 371 385 312 263 258 276 235 185 158 141 97 81 57 71 79 86 60 208 236 232 253 255 254 143 145 83 174 160 87 4 42 19 65 120 139 90
222 190 149 131 171 302 311 313 367 324 273 304 266 250 262 184 246 176 129 126 110 94 33 77 38 77 111 99 109 131 158 189 206 184 153 118 76 73 52 62 150 163 121 110
238 190 154 194 188 242 283 302 349 343 304 284 248 190 214 161 181 170 179 176 149 102 152 184 169 123 82 59 83 96 167 185 136 87 98 43 51 100 98 127 146 152 207 215
205 182 215 187 175 188 206 232 348 384 315 224 187 171 175 125 111 173 183 185 117 106 160 201 226 217 186 155 117 130 134 190 171 135 120 48 -24 46 110 152 136 111 215 245
208 222 218 176 151 136 228 214 253 326 323 358 312 238 182 214 119 190 198 173 199 229 220 277 217 250 209 143 229 251 294 246 242 211 153 75 59 124 189 155 181 140 189 220
182 229 155 159 151 153 179 210 111 259 300 339 278 250 239 238 192 197 280 320 309 227 278 280 252 226 233 218 199 183 253 292 266 277 201 137 89 69 137 171 94 154 165 136
219 186 148 172 208 225 184 220 209 218 283 318 300 291 281 278 277 286 337 327 341 210 230 263 249 240 233 235 205 260 238 216 223 281 243 105 59 72 101 101 99 105 106 94
221 201 201 165 176 186 230 266 210 202 255 194 177 201 169 202 189 245 384 311 271 163 213 259 232 253 255 277 270 229 223 232 220 184 163 69 68 57 73 143 205 172 135 112
247 253 190 148 163 176 214 210 224 206 182 212 225 206 220 205 184 171 302 392 343 323 257 223 171 196 157 247 210 170 221 242 215 244 157 80 71 100 114 122 144 150 108 137
269 247 202 182 143 160 204 192 153 175 109 111 168 152 152 169 166 104 150 281 327 327 265 239 221 218 147 173 161 172 173 205 186 169 157 113 96 119 138 114 153 157 196 213
181 194 177 162 127 183 214 181 132 115 148 93 98 131 134 133 85 120 97 74 157 285 263 242 192 213 208 195 204 209 204 190 228 153 110 128 60 159 217 183 170 194 276 272
264 228 155 119 125 206 250 184 120 139 165 128 140 113 114 99 78 68 47 77 121 169 197 215 164 157 222 188 177 143 149 132 114 128 132 108 124 146 165 166 164 173 233 296
126 126 113 117 146 222 256 163 98 162 177 176 145 97 122 72 41 69 86 46 23 118 66 85 138 204 197 182 152 172 129 158 122 112 86 86 127 104 123 121 120 176 241 270
107 121 142 142 184 208 204 213 113 224 194 168 170 161 183 129 106 103 62 107 85 60 6 48 54 27 85 113 108 81 93 83 60 30 54 76 54 45 35 91 175 266 281 262
135 162 150 207 220 218 199 115 185 153 162 139 125 125 161 106 166 121 104 115 129 104 63 66 48 60 133 159 108 51 -5 31 90 76 73 67 81 83 91 117 169 223 245 323
227 347 345 233 214 159 298 210 183 151 155 152 98 119 134 115 104 119 95 92 114 115 79 56 57 70 4 74 112 139 154 90 74 89 117 75 105 130 147 154 159 176 227 335
411 380 363 216 152 336 199 190 235 202 188 103 96 159 204 137 145 115 104 76 85 129 175 155 71 2 -35 -52 -3 69 119 136 143 165 137 113 99 106 121 125 155 202 271 345
222 314 285 338 415 281 306 351 348 235 207 129 138 159 217 161 149 153 107 110 73 111 144 156 128 16 -1 57 83 68 88 106 105 109 105 105 121 149 126 123 132 214 243 330
343 328 343 409 357 281 320 486 415 337 247 232 262 257 231 238 182 196 107 55 58 112 104 81 25 83 40 8 18 23 26 42 47 72 77 78 95 107 136 131 130 198 311 418
283 276 349 284 320 326 324 314 349 328 308 223 221 233 166 225 215 153 150 134 126 87 44 26 45 58 102 120 130 111 88 67 66 70 75 83 97 111 92 106 168 282 345 424
216 246 255 246 200 189 160 134 199 184 223 269 223 232 178 163 140 144 161 149 107 42 56 84 66 38 58 75 71 65 66 85 77 77 89 103 92 85 69 119 226 291 374 461
180 209 234 260 281 242 170 144 139 158 147 174 224 221 150 182 176 141 135 156 94 82 91 17 14 17 27 -1 12 39 58 89 112 102 115 54 -1 38 93 195 264 316 381 432
206 169 184 140 135 188 131 158 156 215 275 255 221 155 148 210 205 212 197 173 126 128 97 66 23 34 31 4 5 30 79 103 105 96 52 43 78 120 148 190 205 273 292 334

GFSNW_con_3kmhel_261.txt.gz
Helicity
162 190 117 152 219 208 406 414 300 209 222 250 245 218 129 68 52 73 64 78 59 93 107 77 98 108 98 117 87 61 70 68 94 93 118 110 107 99 115 134 110 171 164 124
175 198 217 192 190 202 364 283 372 225 287 228 263 199 128 81 64 86 21 71 38 51 76 61 100 105 138 159 161 104 73 102 139 165 136 175 137 146 136 143 174 155 159 132
170 191 185 222 187 168 403 303 242 203 178 213 215 180 110 68 67 94 99 50 53 38 64 99 94 120 167 196 180 194 133 133 115 122 111 132 139 167 174 181 254 219 192 124
181 185 187 161 146 119 212 280 150 196 170 210 260 197 97 100 114 112 100 84 75 113 85 97 98 159 188 203 206 182 144 139 159 169 171 162 103 85 146 233 211 207 110 97
190 204 197 169 109 199 400 291 305 330 250 177 111 191 167 105 107 128 127 92 77 81 85 68 30 102 120 119 143 158 183 162 179 165 155 139 116 62 149 119 135 104 106 50
217 223 206 161 179 285 371 381 419 283 241 216 177 180 184 128 127 117 77 89 106 87 57 62 61 81 59 92 88 86 153 170 149 108 135 147 148 147 118 120 90 89 107 162
203 239 198 201 190 334 332 395 355 382 322 314 215 212 195 166 134 124 99 78 104 88 73 99 95 96 72 99 71 121 123 144 171 151 147 175 156 145 93 80 57 95 96 96
204 233 206 227 180 287 314 329 315 303 311 252 258 246 229 181 151 126 121 101 85 108 161 159 159 165 168 148 71 101 117 162 155 146 130 101 -17 91 151 136 69 114 125 170
222 250 279 279 212 251 301 323 297 273 275 264 273 216 246 223 165 130 121 117 146 218 235 252 183 162 171 141 177 207 178 178 197 203 133 125 76 55 115 96 97 124 181 205
231 254 276 237 231 257 293 304 309 340 335 308 320 254 246 258 234 163 176 122 179 219 276 250 245 227 242 201 192 166 264 264 199 231 184 167 119 84 102 144 95 91 124 145
248 246 258 275 230 278 302 288 313 252 372 336 320 289 228 243 218 208 214 281 258 291 245 219 214 204 227 244 244 213 204 218 245 260 227 164 109 127 99 79 66 57 106 110
291 297 275 257 228 245 306 348 274 264 269 300 172 203 229 223 189 178 296 313 280 282 340 308 320 273 252 229 221 263 230 260 212 203 199 124 92 89 57 64 84 105 146 136
270 320 318 281 241 217 314 327 261 269 293 272 254 269 205 206 217 191 212 350 289 327 272 204 216 219 244 245 194 191 225 236 207 220 151 137 100 128 105 80 90 111 134 129
292 285 282 297 217 251 355 320 305 231 248 230 233 243 226 206 202 162 122 206 347 264 295 287 237 193 129 180 160 164 160 170 175 172 177 183 148 96 70 107 109 119 148 160
303 303 280 292 306 349 401 377 298 203 174 138 229 240 176 157 135 136 94 108 193 282 323 263 208 237 205 204 214 178 233 219 244 200 133 152 110 122 116 116 146 133 169 203
456 416 357 336 346 340 357 311 250 247 181 162 215 202 177 175 137 102 94 64 84 145 211 250 271 278 219 193 188 150 170 211 211 207 171 122 126 91 91 111 109 132 166 154
443 302 350 375 311 366 313 153 154 190 218 139 134 147 187 232 169 145 115 83 41 18 8 31 144 233 165 211 196 152 137 159 186 155 155 139 129 115 116 112 122 136 141 159
430 385 342 402 377 390 392 221 159 275 212 147 94 103 155 155 163 172 159 133 101 6 -11 -24 62 88 160 161 110 100 113 156 176 126 109 124 107 101 106 117 127 135 149 190
296 285 285 428 492 440 350 157 213 202 158 118 109 114 98 117 170 166 183 154 141 127 62 33 -2 70 135 117 53 44 49 100 100 65 55 83 96 113 88 76 83 107 103 168
208 389 456 407 292 139 251 300 222 194 152 113 34 96 134 115 152 185 199 170 134 135 83 94 80 76 29 88 44 81 91 56 17 26 56 108 137 107 78 114 159 179 192 225
465 472 464 202 177 384 359 256 187 129 98 35 26 71 152 137 160 159 139 156 138 104 70 103 113 90 9 -33 -61 6 -29 -47 7 120 173 131 100 118 133 149 159 183 176 207
257 298 354 393 331 247 227 215 185 96 67 33 84 157 203 155 148 162 133 166 151 127 97 89 107 15 -33 27 74 92 111 129 120 103 111 97 106 134 159 145 120 128 142 168
394 323 262 229 212 224 242 243 208 156 165 157 179 219 209 234 182 182 132 128 168 233 175 169 73 37 -33 -3 -4 -12 37 38 66 53 74 77 88 72 90 87 90 100 117 166
272 337 315 232 264 301 256 243 263 228 208 190 221 240 195 207 228 189 188 164 211 224 165 106 52 16 22 58 75 74 67 50 58 84 100 80 78 68 54 69 87 101 137 177
213 240 297 288 212 258 311 227 285 312 209 227 271 267 214 196 145 174 210 187 189 139 134 98 35 40 27 14 42 48 48 29 32 81 72 47 44 39 30 35 49 59 134 212
230 231 226 327 369 220 182 185 227 255 256 225 240 170 143 134 184 211 211 267 127 140 95 27 18 26 -6 14 28 -17 -39 6 18 9 36 49 32 23 20 26 49 57 116 189
219 242 230 192 214 120 57 64 117 230 283 242 188 138 131 192 228 235 246 192 100 32 28 18 12 -4 2 -13 -11 -14 16 21 16 53 46 44 53 52 49 38 43 70 104 183

GFSNW_con_3kmhel_264.txt.gz
Helicity
157 180 232 203 210 279 270 288 181 157 289 271 267 250 184 90 76 78 75 50 50 61 115 130 132 101 88 88 71 75 62 44 71 63 47 49 61 78 105 131 96 134 139 73
122 160 204 265 255 321 452 353 289 194 374 211 263 319 241 112 108 67 66 70 51 51 70 127 123 108 79 105 75 49 56 74 94 99 94 109 103 121 138 148 145 132 184 134
126 159 190 163 157 299 471 486 401 391 351 378 300 287 209 163 99 83 63 55 73 69 53 117 112 90 86 101 97 114 114 89 89 82 57 58 100 123 162 167 171 164 171 161
159 161 175 179 187 342 533 553 400 465 245 335 375 280 156 192 168 99 46 75 80 89 77 59 83 88 120 87 103 122 127 90 94 99 131 128 104 114 150 161 147 168 137 211
167 169 191 240 246 331 330 427 400 398 369 357 328 298 265 165 172 155 144 107 60 83 96 54 13 58 83 55 102 113 116 59 74 78 125 148 109 103 109 134 150 197 185 126
162 186 191 236 274 455 281 357 472 379 321 219 235 230 226 141 207 134 112 94 112 92 63 87 92 68 75 88 86 74 63 33 26 -1 68 72 30 73 133 185 187 173 178 148
160 169 218 173 227 304 387 427 367 369 228 226 157 77 139 143 164 172 101 143 140 83 74 84 109 92 72 78 72 88 81 77 79 19 34 54 71 102 92 86 64 103 87 90
208 193 193 140 88 172 302 332 191 68 132 166 130 95 50 159 166 147 109 159 130 94 96 140 129 149 117 82 77 126 124 117 109 111 75 51 -14 91 128 113 -23 49 135 120
194 187 177 191 168 241 371 374 289 264 204 193 230 210 204 231 223 213 174 194 173 189 154 166 137 106 94 54 83 235 259 177 146 156 110 76 56 51 77 71 31 59 91 99
174 199 181 231 224 325 386 356 304 281 301 265 263 274 236 246 244 187 195 183 202 225 213 201 189 179 157 162 136 154 188 230 188 222 168 152 112 87 113 109 58 78 78 102
169 152 199 231 232 321 358 333 328 241 298 288 296 291 268 301 246 218 177 215 199 263 251 235 226 179 182 194 190 185 194 140 182 221 200 145 143 133 120 49 60 56 65 88
176 171 191 226 218 281 330 364 384 288 311 256 298 289 282 236 190 212 262 215 172 190 270 313 267 289 265 213 235 280 244 247 173 159 144 151 100 76 57 80 68 68 78 94
242 182 140 248 259 281 351 327 327 342 346 352 314 345 311 247 217 149 220 253 224 255 273 262 266 269 253 246 222 190 245 243 219 218 163 156 133 128 84 134 125 87 61 125
261 208 176 225 300 364 404 360 378 340 318 283 354 260 229 213 210 154 133 163 213 216 253 280 261 231 169 162 157 163 168 225 207 216 200 122 102 92 87 105 113 85 110 130
245 219 194 256 264 370 523 457 388 233 165 192 254 258 213 223 191 130 138 130 193 274 303 273 234 183 192 217 208 192 257 240 248 193 120 157 118 107 126 130 121 115 127 134
208 209 249 277 364 436 424 420 379 292 182 172 304 295 236 228 193 164 135 143 162 185 222 216 204 205 215 176 180 168 167 188 148 143 112 159 134 114 149 140 103 117 113 112
257 228 293 443 530 505 521 318 192 303 246 214 226 190 257 278 225 201 173 150 131 122 118 125 142 139 136 201 157 134 175 154 115 102 162 161 137 104 88 115 127 148 146 137
300 366 516 597 540 566 515 351 239 423 288 169 126 149 150 206 203 182 143 140 140 115 96 124 108 92 115 167 152 86 63 97 103 133 112 94 102 103 117 139 149 133 112 124
470 682 791 820 809 722 480 260 358 391 230 140 105 106 90 119 161 171 187 161 127 129 115 116 72 89 104 130 105 17 -12 38 41 57 72 55 58 107 135 126 133 128 111 104
1064 1131 919 842 800 493 525 546 444 322 239 187 114 184 136 120 168 172 164 164 150 131 108 128 99 102 75 113 106 78 62 57 59 75 89 92 200 177 126 98 129 155 136 136
1114 1007 827 576 496 780 679 559 351 254 216 119 85 124 159 133 94 106 105 94 93 76 73 125 127 148 113 16 71 125 155 109 92 106 125 162 95 72 92 136 164 159 149 173
747 719 736 705 581 398 317 451 300 210 182 105 120 207 189 135 153 131 107 86 82 60 101 96 126 129 41 91 -4 14 75 100 106 135 160 193 186 168 194 168 160 156 152 143
857 825 637 356 290 310 339 310 278 212 231 194 217 312 263 232 159 153 111 90 87 119 119 153 201 141 99 31 46 36 -3 24 37 42 82 76 97 94 120 105 94 85 78 80
692 713 613 403 404 312 268 260 307 316 193 6 121 245 223 227 244 147 123 117 148 167 233 224 132 53 27 53 60 61 44 52 43 46 62 64 69 59 65 66 75 66 62 62
446 351 320 277 224 248 194 191 253 238 34 82 200 236 165 190 169 154 173 196 224 209 268 186 80 20 14 26 54 55 66 34 0 15 12 15 20 27 46 63 51 45 41 38
290 246 219 231 220 280 234 161 193 146 81 163 219 194 162 188 215 208 216 279 268 232 148 79 55 66 31 42 18 52 33 -14 -1 2 13 17 37 38 38 39 39 43 47 46
187 202 165 184 179 117 152 154 168 125 174 213 194 144 141 160 179 228 200 256 217 227 158 128 67 30 13 21 19 -4 -22 -17 -1 13 32 43 55 45 42 47 79 84 93 81

GFSNW_con_3kmhel_270.txt.gz
Helicity
128 116 119 140 190 270 290 397 271 26 173 66 91 160 100 124 90 115 207 177 135 115 115 106 101 84 104 98 96 78 86 100 89 112 92 89 94 71 48 87 70 99 90 47
113 129 109 123 166 251 439 459 315 126 154 108 134 165 158 101 88 113 181 204 148 116 112 116 113 92 98 97 86 77 64 70 91 94 73 70 66 60 69 82 92 64 67 56
232 117 108 116 192 235 434 437 371 193 150 184 210 264 168 183 131 128 169 159 111 99 96 116 116 89 107 127 95 95 93 93 103 89 141 106 91 75 59 63 97 77 70 44
156 158 97 108 154 138 410 512 464 228 116 213 138 209 186 150 165 160 116 122 64 45 64 85 99 120 123 122 104 106 107 84 103 109 95 97 109 81 65 61 71 87 32 32
133 170 126 105 136 87 215 239 326 369 201 246 310 225 169 126 180 124 120 88 49 33 45 70 78 93 116 137 127 130 121 78 85 96 77 83 81 95 80 76 72 42 24 17
105 156 111 130 122 274 208 96 420 459 288 302 302 266 233 153 159 210 135 196 103 32 24 73 129 137 166 140 99 106 110 93 72 50 71 61 16 54 72 72 68 59 27 35
92 100 122 109 104 155 366 290 383 278 377 233 246 276 279 119 131 195 208 147 89 46 67 116 101 103 112 151 165 155 103 91 111 79 50 30 81 102 110 91 71 53 30 30
-11 125 249 84 124 149 239 130 173 205 263 299 238 179 230 196 275 291 195 154 73 49 78 141 140 135 117 98 152 129 145 128 125 88 41 71 22 49 39 41 64 58 44 43
23 87 319 206 145 191 316 291 234 272 186 241 130 214 233 374 287 304 275 268 141 108 163 184 158 131 118 91 146 185 161 145 134 128 77 30 74 57 54 23 53 60 42 63
18 25 291 292 93 186 224 244 349 281 330 320 193 287 274 405 377 304 269 237 238 126 171 203 179 149 163 160 132 191 201 190 143 95 92 71 42 128 88 64 93 65 77 68
-19 -141 204 276 144 161 268 287 322 462 497 412 501 367 268 380 359 347 288 255 170 184 192 190 208 169 167 174 172 201 166 150 173 124 128 60 94 150 92 99 80 83 68 19
-14 -12 70 215 152 170 283 307 337 354 444 328 480 530 480 410 256 254 166 181 125 174 179 173 188 216 188 140 151 192 183 193 189 144 99 172 47 73 54 85 96 64 44 43
37 26 22 169 133 260 336 369 393 533 429 394 351 337 357 267 239 233 295 282 226 243 277 195 190 194 156 207 142 115 158 180 155 159 138 148 132 118 119 83 64 36 26 44
66 62 47 194 267 278 307 417 414 280 437 431 448 282 249 222 169 187 226 147 228 215 233 202 179 191 182 170 169 128 113 166 167 156 136 124 89 74 52 59 87 56 22 25
39 24 56 94 202 211 416 442 483 366 320 269 356 328 297 231 151 157 179 156 208 243 230 266 214 232 212 221 232 210 218 164 217 176 95 103 92 80 113 108 77 64 89 78
33 41 66 64 277 436 657 467 247 239 213 368 365 394 432 342 262 275 286 262 266 264 242 247 257 241 240 197 176 99 118 160 160 106 107 113 101 65 45 50 59 57 83 78
32 42 40 126 164 471 457 369 287 191 232 370 380 385 373 373 386 399 353 312 272 264 252 255 250 244 240 213 171 183 129 100 47 58 91 99 70 94 48 63 49 70 89 105
30 33 125 111 222 360 387 494 227 242 358 440 432 433 407 356 411 389 294 287 226 233 215 194 206 168 187 150 129 53 41 36 42 37 58 68 51 61 48 22 27 61 74 65
47 86 161 95 297 533 486 241 445 447 339 427 432 412 504 337 344 259 227 192 225 151 172 152 137 174 206 129 44 58 57 61 49 63 70 62 65 58 60 56 80 101 90 118
85 115 168 298 365 284 393 439 437 353 306 263 311 361 386 267 328 307 253 223 193 158 143 138 170 138 38 27 42 31 30 33 21 0 1 29 34 58 76 92 114 142 122 106
150 106 214 267 439 802 543 521 394 315 278 191 233 188 290 229 220 277 187 187 175 184 171 158 139 90 55 30 45 43 24 6 2 16 24 37 50 62 69 78 70 47 60 74
126 191 414 575 592 460 396 501 418 328 180 214 239 202 287 277 235 206 168 211 153 178 112 122 83 22 43 55 44 45 40 58 49 23 17 28 34 52 66 64 44 40 54 67
350 425 481 403 264 247 436 702 444 228 217 296 354 349 327 276 228 207 172 137 140 97 95 103 40 94 90 67 40 45 58 50 52 64 62 61 69 68 85 72 43 28 34 36
341 517 572 384 417 274 396 411 372 245 317 360 438 480 339 295 239 132 137 132 111 107 103 77 72 38 56 49 57 60 80 99 135 142 146 130 117 83 34 48 50 75 63 68
249 340 467 436 231 248 309 321 345 239 312 569 436 419 418 345 213 195 175 126 141 120 151 111 89 97 82 89 87 97 101 116 138 155 163 145 78 25 6 49 56 67 74 51
248 209 248 240 258 253 256 310 393 231 385 456 520 439 304 237 186 162 161 148 141 189 157 127 118 81 85 114 148 172 157 138 139 168 133 68 52 27 22 46 54 76 58 38
364 311 231 270 262 187 258 243 356 270 339 451 399 350 308 221 236 189 175 174 225 78 39 77 63 65 96 143 142 111 80 74 98 95 98 93 48 47 53 47 70 69 50 30

GFSNW_con_3kmhel_273.txt.gz
Helicity
117 179 66 113 135 177 285 347 247 166 430 278 295 251 266 169 76 106 149 115 21 86 63 75 40 56 115 85 91 26 35 44 40 10 111 87 16 16 28 76 85 76 114 63
148 100 92 118 155 205 376 308 321 94 308 300 331 338 245 79 62 60 106 110 106 99 82 126 85 123 88 73 59 93 66 79 98 120 82 75 67 44 0 50 92 78 62 61
118 127 76 150 174 143 340 341 379 316 276 269 276 327 211 111 76 52 120 125 97 110 116 149 90 70 93 119 104 126 104 84 64 102 130 58 45 53 49 45 88 42 46 28
252 123 68 128 149 152 292 402 339 429 251 223 282 315 210 149 115 78 114 124 91 103 111 56 72 78 71 92 92 85 98 60 91 61 101 146 96 105 63 74 54 55 41 53
165 193 270 148 125 141 234 310 330 356 252 160 236 281 142 105 91 84 96 93 120 104 111 69 78 64 65 79 122 120 100 112 96 102 71 88 87 62 67 50 51 58 65 60
68 125 255 136 160 238 248 188 386 290 299 244 216 131 121 78 121 112 76 121 91 128 125 128 206 238 151 147 106 107 118 118 82 50 55 74 53 28 28 26 59 82 65 71
22 90 101 187 191 170 301 195 436 312 276 290 199 183 140 115 81 175 174 137 174 263 178 124 124 132 171 134 138 158 118 103 109 87 77 42 85 80 75 94 92 93 98 64
9 63 53 350 133 142 266 250 396 259 269 366 149 242 132 111 199 193 199 231 194 228 214 131 123 95 91 83 106 90 136 114 146 107 61 68 47 32 30 25 24 54 73 86
9 19 29 38 263 93 190 204 342 347 287 344 336 255 208 345 301 390 264 243 177 85 184 222 183 149 95 93 112 142 138 184 123 136 131 79 127 99 37 39 28 80 113 89
30 -1 54 101 252 154 202 206 237 365 245 244 320 248 238 268 389 424 358 362 329 217 216 182 120 94 65 127 109 141 147 150 139 132 165 136 147 118 79 47 76 129 99 110
35 -5 8 25 110 359 247 318 343 235 324 214 189 219 243 259 270 350 243 397 337 247 223 244 286 276 174 136 73 103 102 134 139 115 150 104 62 156 83 123 140 96 88 85
52 11 14 16 182 225 225 305 364 393 269 181 262 180 207 227 95 260 220 269 187 222 258 207 219 214 152 102 113 120 107 133 108 119 102 167 125 132 42 89 85 95 87 98
70 19 14 17 143 290 185 314 383 347 320 358 314 305 423 322 335 238 287 179 78 136 160 227 232 219 151 148 105 110 57 87 74 110 124 178 141 95 142 106 102 83 65 51
79 48 18 62 60 453 337 284 300 373 288 282 518 501 534 470 384 314 293 288 348 219 183 240 196 130 123 112 122 89 97 77 94 87 105 145 136 106 84 72 62 68 65 44
60 63 24 71 -6 290 268 249 246 361 404 279 384 389 548 377 360 325 292 200 175 189 251 236 204 161 183 171 187 126 101 120 143 126 91 94 89 84 81 91 97 77 67 75
29 41 52 72 13 135 205 371 326 524 402 148 324 336 324 192 214 152 132 113 96 112 133 104 143 236 170 137 121 71 105 119 119 81 55 66 84 80 76 76 75 53 50 51
47 53 86 50 52 152 178 280 361 341 383 358 370 431 538 396 329 243 127 113 124 121 175 201 220 181 214 178 132 140 159 133 64 24 67 85 84 88 60 52 40 48 60 73
42 28 42 54 116 101 159 308 368 413 455 441 452 452 521 450 388 366 368 244 196 209 190 212 209 215 226 166 103 104 96 42 74 80 48 53 62 81 53 37 50 60 66 63
37 44 32 97 132 173 291 429 499 707 531 593 546 533 583 411 491 367 373 325 300 253 251 231 215 221 246 186 138 57 69 114 95 74 71 62 60 43 36 35 35 35 57 103
61 103 87 131 138 111 324 528 475 535 574 473 361 454 551 426 502 481 417 332 333 283 230 246 251 171 111 122 65 89 95 82 69 71 51 62 53 35 28 41 52 47 56 88
155 109 103 132 172 373 325 414 466 434 455 490 317 237 402 363 421 451 305 299 269 264 231 229 179 127 113 52 73 91 82 70 56 44 40 43 45 41 43 43 39 47 51 64
130 98 136 262 227 233 223 398 417 563 606 346 261 271 396 487 339 281 258 292 242 255 155 216 198 115 70 111 110 98 88 53 54 55 55 44 41 58 59 53 48 49 61 92
201 115 177 251 195 190 219 425 564 456 396 277 320 420 402 410 310 271 256 227 241 148 184 202 175 65 88 102 115 70 37 43 52 57 57 56 62 70 75 68 79 83 81 80
181 140 69 213 230 173 287 285 362 410 302 408 378 349 331 278 324 204 268 230 188 201 176 149 86 77 105 106 83 62 45 46 46 68 87 94 89 96 110 105 86 105 105 91
138 69 110 185 159 135 339 240 289 308 415 453 391 320 299 385 296 233 220 176 179 142 105 42 63 48 76 91 86 73 57 72 63 94 105 126 114 97 104 102 70 62 113 103
96 49 105 201 165 186 267 267 304 322 387 436 403 366 272 243 162 167 164 155 113 61 91 81 93 105 119 114 94 93 118 102 80 76 100 111 132 119 83 89 88 125 114 111
27 127 127 195 147 144 171 225 308 263 416 445 405 294 262 202 184 174 166 162 159 82 62 123 138 129 105 98 122 148 141 114 111 116 117 122 97 102 120 104 80 79 85 86